Retour au catalogue

CENTISPACE-2 S4

ActifNavigationLEO
NORAD 68353·PAYLOAD·🇨🇳 China

Lancé Mar 22, 2026 depuis Yellow Sea Launch Area

Loading…

Prochains Passages (prochaines 24 heures)

TLE

FraisSource: Space-Track

Époque: Sep 14, 2026, 18:09 UTC

1 68353U 26060D   26257.75635164 -.00000024  00000-0  56920-4 0  9991
2 68353  54.9807  47.9113 0009235 268.3323  91.6596 14.25047121 25719

Suivez CENTISPACE-2 S4 en temps réel avec AllMySat

Download on the App Store